Weather History for Wright-Patt AFB, OH

Change the Weather History Date:

Friday, January 18, 2013

  Actual Average Record
Temperature  
Mean Temperature 28 °F -  
Max Temperature 38 °F 32 °F 50 °F (1999)
Min Temperature 18 °F 16 °F -4 °F (2003)
Degree Days  
Heating Degree Days 37    
Moisture  
Dew Point 13 °F    
Average Humidity 54    
Maximum Humidity 75    
Minimum Humidity 30    
Precipitation  
Precipitation 0.00 in - - ()
Sea Level Pressure  
Sea Level Pressure 30.41 in    
Wind  
Wind Speed 8 mph (SSW)    
Max Wind Speed 22 mph    
Max Gust Speed 29 mph    
Visibility 10 miles    
Events      
Averages and records for this station are not official NWS values.
T = Trace of Precipitation, MM = Missing Value Source: NWS Daily Summary

Daily Weather History Graph

Daily Weather History Graph

Search for Another Location

Airport:

Trip Planner

Search our weather history database for the weather conditions in past years. The results will help you decide how hot, cold, wet, or windy it might be!

Date:

Astronomy

Jan. 18, 2013 Rise Set
Actual Time 7:54 AM EST 5:39 PM EST
Civil Twilight 7:24 AM EST 6:09 PM EST
Nautical Twilight 6:51 AM EST 6:42 PM EST
Astronomical Twilight 6:19 AM EST 7:14 PM EST
Moon 11:33 AM EST 12:28 AM EST
Length of Visible Light 10h 44m
Length of Day
9h 45m
Waxing Crescent, 47% of the Moon is Illuminated
Jan 18
Waxing Crescent
Jan 18
First Quarter
Jan 26
Full
Feb 3
Last Quarter
Feb 10
New

Hourly Weather History & Observations

Time (EST) Temp. Windchill Dew Point Humidity Pressure Visibility Wind Dir Wind Speed Gust Speed Precip Events Conditions
12:55 AM 23.4 °F 15.2 °F 11.8 °F 61% 30.44 in 10.0 mi WNW 6.9 mph - N/A   Clear
1:55 AM 21.2 °F 14.9 °F 11.3 °F 66% 30.45 in 10.0 mi West 4.6 mph - N/A   Clear
2:55 AM 18.9 °F 13.7 °F 10.9 °F 71% 30.47 in 10.0 mi WSW 3.5 mph - N/A   Clear
3:55 AM 19.0 °F 13.9 °F 11.3 °F 72% 30.48 in 10.0 mi WSW 3.5 mph - N/A   Clear
4:55 AM 19.0 °F 11.1 °F 11.8 °F 74% 30.49 in 10.0 mi WSW 5.8 mph - N/A   Clear
5:55 AM 18.3 °F 13.1 °F 11.5 °F 75% 30.50 in 10.0 mi SW 3.5 mph - N/A   Clear
6:55 AM 18.9 °F 12.1 °F 12.0 °F 75% 30.50 in 10.0 mi SE 4.6 mph - N/A   Clear
7:55 AM 18.5 °F 13.3 °F 11.8 °F 75% 30.52 in 10.0 mi South 3.5 mph - N/A   Clear
8:55 AM 22.1 °F - 14.4 °F 72% 30.53 in 10.0 mi Calm Calm - N/A   Partly Cloudy
9:55 AM 25.5 °F 18.7 °F 13.5 °F 60% 30.54 in 10.0 mi SSW 5.8 mph - N/A   Partly Cloudy
10:55 AM 28.8 °F 20.9 °F 10.8 °F 47% 30.54 in 10.0 mi SW 8.1 mph - N/A   Partly Cloudy
11:55 AM 31.6 °F 26.0 °F 10.0 °F 41% 30.51 in 10.0 mi SW 5.8 mph - N/A   Partly Cloudy
12:55 PM 34.2 °F 26.2 °F 10.8 °F 38% 30.46 in 10.0 mi South 10.4 mph - N/A   Partly Cloudy
1:55 PM 35.8 °F 27.3 °F 10.2 °F 35% 30.43 in 10.0 mi South 12.7 mph - N/A   Partly Cloudy
2:55 PM 37.0 °F 28.5 °F 9.9 °F 33% 30.41 in 10.0 mi South 13.8 mph 19.6 mph N/A   Partly Cloudy
3:55 PM 38.1 °F 29.1 °F 9.1 °F 30% 30.38 in 10.0 mi South 16.1 mph - N/A   Scattered Clouds
4:55 PM 37.0 °F 26.2 °F 10.4 °F 33% 30.35 in 10.0 mi South 21.9 mph 27.6 mph N/A   Scattered Clouds
5:55 PM 35.1 °F 26.4 °F 12.9 °F 40% 30.35 in 10.0 mi South 12.7 mph - N/A   Partly Cloudy
6:55 PM 34.2 °F 24.0 °F 15.6 °F 47% 30.34 in 10.0 mi South 16.1 mph - N/A   Partly Cloudy
7:55 PM 34.2 °F 24.4 °F 17.4 °F 50% 30.32 in 10.0 mi South 15.0 mph - N/A   Partly Cloudy
8:55 PM 34.7 °F 24.7 °F 18.5 °F 52% 30.29 in 10.0 mi South 16.1 mph - N/A   Partly Cloudy
9:55 PM 35.6 °F 25.2 °F 18.9 °F 51% 30.26 in 10.0 mi South 18.4 mph 24.2 mph N/A   Partly Cloudy
10:45 PM 35.6 °F 25.5 °F 19.4 °F 52% 30.24 in 10.0 mi SSW 17.3 mph 28.8 mph N/A   Partly Cloudy
10:55 PM 36.1 °F 25.5 °F 18.9 °F 50% 30.23 in 10.0 mi SSW 19.6 mph - N/A   Partly Cloudy
11:55 PM 36.0 °F 25.3 °F 18.9 °F 50% 30.22 in 10.0 mi SSW 19.6 mph - N/A   Partly Cloudy